[[{"header":{"parameterUnit":"m.s-1","parameterCategory":1,"la1":30.2991,"la2":30.254,"lo1":-89.0895,"lo2":-89.0444,"dy":0.0017,"dx":0.0017,"nx":28,"ny":28,"refTime":"2024-08-01T21:00:00:Z","depth":0,"parameterNumber":2,"parameterNumberName":"U-component_of_WINDS"},"data":[0,0,0,0,0,0,0,0,0,0,0,0,0,0,0,0,0,0,0,0,0,0,0,0,0,0,0,0,0,0,0,0,0,0,0,0,0,0,0,0,0,0,0,0,0,0,0,0,0,0,0,0,0,0,0,0,0,0,2.126,2.1261,0,2.1377,2.1379,2.138,2.1384,2.1383,2.1381,2.138,2.1508,2.1512,2.1517,0,0,0,0,0,0,0,0,0,0,0,0,0,2.1044,2.1048,2.1259,2.1261,2.1262,2.1377,2.1379,2.138,2.1385,2.1383,2.1381,2.1379,2.1506,2.1512,2.1517,0,0,0,0,0,0,0,0,0,0,0,0,0,2.1147,2.1049,2.1259,2.1278,2.1281,2.1377,2.1379,2.1381,2.1385,2.1383,2.1381,2.1379,2.1504,2.1511,2.1518,2.1605,0,0,2.154,2.1543,0,0,0,0,0,0,0,0,2.1142,2.1155,2.1274,2.1277,2.128,2.1364,2.135,2.1456,2.1386,2.1346,2.138,2.1378,2.1462,2.1472,2.15,2.1611,2.1617,2.1541,2.1545,2.1548,2.155,0,0,0,0,0,0,0,2.1134,2.115,2.1306,2.1276,2.128,2.1283,2.1295,2.137,2.1415,2.1349,2.135,2.1363,2.1463,2.1493,2.1503,2.1619,2.154,2.1547,2.1551,2.1554,2.1808,2.181,0,0,0,0,0,0,2.1123,2.1144,2.1303,2.131,2.1204,2.1288,2.1302,2.1339,2.1414,2.1423,2.1365,2.1363,2.1482,2.1494,2.1507,2.1614,2.1548,2.1555,2.1559,2.1805,2.1809,2.1811,0,0,0,0,0,0,2.1118,2.1137,2.1298,2.1227,2.1248,2.1294,2.1336,2.1343,2.1372,2.1426,2.1434,2.1386,2.148,2.1497,2.158,2.1618,2.1558,2.1564,2.1803,2.1806,2.181,2.1827,0,0,0,0,0,0,2.1112,2.1135,2.1167,2.1228,2.1252,2.1367,2.1338,2.1347,2.1383,2.1382,2.1448,2.1457,2.148,2.157,2.1587,2.1627,2.157,2.1799,2.1804,2.1809,2.1824,2.1831,2.1838,0,0,0,0,0,2.1104,2.1169,2.1168,2.1188,2.1292,2.1369,2.1383,2.1406,2.1386,2.142,2.1455,2.1455,2.1611,2.1578,2.1598,2.164,2.1797,2.1803,2.1808,2.182,2.183,2.1838,0,0,0,0,0,0,2.1113,2.1177,2.1177,2.1263,2.131,2.137,2.1413,2.1416,2.1471,2.1468,2.1497,2.1512,2.1594,2.1626,2.1588,2.1729,2.1702,2.1712,2.1704,2.1714,2.1721,2.1711,2.1576,0,0,0,0,0,2.1125,2.118,2.1233,2.1304,2.1328,2.1366,2.14,2.1414,2.1465,2.1486,2.1527,2.1578,2.1639,2.1678,2.1737,2.1828,2.1843,2.1867,2.1874,2.188,2.1888,2.1939,2.195,2.183,2.183,2.1829,0,0,2.115,2.1192,2.1225,2.1307,2.1345,2.1403,2.1383,2.1445,2.1489,2.1496,2.1576,2.1608,2.1668,2.1755,2.1796,2.1784,2.1925,2.1887,2.1891,2.1896,2.1946,2.1957,2.1967,2.1833,2.1833,2.1832,0,0,2.1225,2.1262,2.1325,2.1363,2.142,2.1446,2.1461,2.152,2.154,2.1621,2.1627,2.1681,2.1785,2.1827,2.1862,2.1953,2.1956,2.1972,2.2009,2.2058,2.2067,2.2076,2.2108,2.2119,2.198,2.198,2.198,0,2.125,2.1335,2.1357,2.1419,2.1456,2.1462,2.1527,2.1564,2.1639,2.1664,2.165,2.178,2.182,2.1918,2.194,2.1968,2.1987,2.1964,2.2064,2.2073,2.2081,2.2112,2.2124,2.1981,2.1981,2.1981,2.1981,0,2.1363,2.1423,2.1467,2.1536,2.1578,2.1641,2.1674,2.1714,2.1724,2.1751,2.1834,2.1883,2.1951,2.1976,2.1987,2.2075,2.2066,2.2057,2.2031,2.2093,2.2123,2.2136,2.1984,2.1983,2.1983,2.1982,0,0,2.1447,2.1527,2.1543,2.1574,2.1638,2.1686,2.175,2.1815,2.1848,2.19,2.1955,2.2043,2.2035,2.2075,2.2092,2.2135,2.2204,2.2121,2.2123,2.2134,2.2303,2.2309,2.2322,2.2206,2.2208,2.221,2.2298,0,2.1529,2.164,2.1662,2.1759,2.1815,2.1823,2.1879,2.1925,2.1953,2.2006,2.2037,2.2098,2.2084,2.2108,2.2151,2.2186,2.2238,2.218,2.2259,2.2261,2.2243,2.2338,2.2344,2.2424,2.231,2.2312,2.2314,0,2.1639,2.169,2.1793,2.1849,2.1874,2.1923,2.1985,2.2035,2.2088,2.2105,2.2149,2.2161,2.223,2.2201,2.2297,2.2257,2.2291,2.2313,2.2317,2.2325,2.2291,2.2348,2.2451,2.2462,2.2332,2.2331,2.2329,0,2.1688,2.1785,2.1858,2.1885,2.1953,2.1988,2.2018,2.2069,2.2107,2.2161,2.2186,2.2249,2.2283,2.2333,2.2362,2.2338,2.2456,2.2429,2.2473,2.2472,2.2496,2.2494,2.2605,2.2519,2.2519,2.2519,2.2519,0,2.1777,2.1839,2.1881,2.1926,2.1997,2.2023,2.2093,2.2123,2.2168,2.2221,2.2233,2.2283,2.2318,2.2373,2.2397,2.2473,2.2489,2.2505,2.2511,2.2504,2.2501,2.2526,2.2521,2.2522,2.2521,2.2521,2.252,0,2.1844,2.1875,2.1955,2.2013,2.2029,2.2078,2.2128,2.2173,2.2201,2.2267,2.2285,2.2329,2.2394,2.2428,2.2511,2.2527,2.2612,2.2615,2.2593,2.2595,2.2636,2.2632,2.2766,2.2785,2.2687,2.2688,2.2689,0,2.1898,2.1946,2.2008,2.2043,2.2073,2.213,2.2168,2.2196,2.2235,2.23,2.2338,2.2403,2.2457,2.2562,2.2602,2.2666,2.2669,2.2712,2.2679,2.267,2.2669,2.2666,2.2671,2.2718,2.2719,2.272,2.272,0,2.199,2.2003,2.2056,2.2115,2.2159,2.2208,2.2256,2.2284,2.232,2.2364,2.243,2.2472,2.2555,2.262,2.2687,2.272,2.2727,2.273,2.2744,2.2737,2.2722,2.273,2.2608,2.2727,2.2726,2.2726,2.2726,2.2725,2.2052,2.2095,2.2145,2.2204,2.2243,2.2287,2.2332,2.2365,2.2419,2.2488,2.2502,2.2571,2.2625,2.2714,2.275,2.2806,2.2797,2.2817,2.2821,2.2826,2.2827,2.2713,2.2818,2.2818,2.2818,2.2818,2.2818,0,2.2144,2.2177,2.2231,2.2296,2.2343,2.2344,2.2397,2.2436,2.2497,2.2545,2.2597,2.2673,2.2737,2.2782,2.2847,2.2884,2.2889,2.29,2.2897,2.2905,2.2831,2.2813,2.2895,2.2895,2.2895,2.2895,2.2895,2.2895,2.2197,2.2269,2.2288,2.238,2.2413,2.248,2.251,2.2552,2.259,2.2674,2.2726,2.2754,2.2802,2.2871,2.2929,2.2941,2.2965,2.2976,2.2988,2.2918,2.291,2.2902,2.2885,2.2981,2.2981,2.3056,2.3057,2.3058]},{"header":{"parameterUnit":"m.s-1","parameterCategory":1,"la1":30.2991,"la2":30.254,"lo1":-89.0895,"lo2":-89.0444,"dy":0.0017,"dx":0.0017,"nx":28,"ny":28,"refTime":"2024-08-01T21:00:00:Z","depth":0,"parameterNumber":3,"parameterNumberName":"V-component_of_WINDS"},"data":[0,0,0,0,0,0,0,0,0,0,0,0,0,0,0,0,0,0,0,0,0,0,0,0,0,0,0,0,0,0,0,0,0,0,0,0,0,0,0,0,0,0,0,0,0,0,0,0,0,0,0,0,0,0,0,0,0,0,4.2022,4.2023,0,4.2131,4.2133,4.2134,4.2147,4.2146,4.2145,4.2144,4.2249,4.2252,4.2256,0,0,0,0,0,0,0,0,0,0,0,0,0,4.1812,4.1816,4.2021,4.2023,4.2024,4.2131,4.2133,4.2134,4.2147,4.2146,4.2144,4.2143,4.2248,4.2252,4.2257,0,0,0,0,0,0,0,0,0,0,0,0,0,4.1911,4.1817,4.2021,4.2044,4.2047,4.2131,4.2133,4.2135,4.2147,4.2146,4.2144,4.2143,4.2246,4.2252,4.2257,4.2324,0,0,4.2275,4.2277,0,0,0,0,0,0,0,0,4.1905,4.1918,4.2039,4.2042,4.2046,4.2124,4.2098,4.2198,4.2148,4.2109,4.2144,4.2142,4.2208,4.2217,4.2241,4.2329,4.2334,4.2275,4.2278,4.2281,4.2283,0,0,0,0,0,0,0,4.1898,4.1914,4.2065,4.2041,4.2045,4.2045,4.2057,4.2117,4.2166,4.2112,4.2113,4.2127,4.221,4.2235,4.2243,4.2335,4.2275,4.228,4.2283,4.2286,4.2478,4.248,0,0,0,0,0,0,4.1888,4.1908,4.2061,4.2068,4.197,4.205,4.2064,4.21,4.2165,4.2174,4.2128,4.2127,4.2226,4.2237,4.2247,4.2326,4.2281,4.2286,4.2289,4.2477,4.2479,4.2481,0,0,0,0,0,0,4.1884,4.1902,4.2057,4.1988,4.2008,4.2055,4.2096,4.2103,4.2129,4.2177,4.2185,4.2146,4.2225,4.2239,4.2304,4.233,4.2289,4.2294,4.2475,4.2477,4.248,4.2487,0,0,0,0,0,0,4.1878,4.19,4.1929,4.1989,4.2012,4.2115,4.2098,4.2107,4.214,4.2139,4.2196,4.2204,4.2225,4.2296,4.231,4.2337,4.2298,4.2473,4.2476,4.2479,4.2485,4.249,4.2494,0,0,0,0,0,4.187,4.1926,4.193,4.1949,4.2049,4.2117,4.213,4.2155,4.2142,4.2169,4.2199,4.2202,4.2325,4.2302,4.2318,4.2348,4.2471,4.2475,4.2479,4.2483,4.2489,4.2494,0,0,0,0,0,0,4.1866,4.1934,4.194,4.2018,4.2061,4.2119,4.2154,4.2161,4.2208,4.2206,4.2233,4.2246,4.2309,4.2335,4.2308,4.2413,4.2396,4.2404,4.2394,4.24,4.2405,4.2396,4.2303,0,0,0,0,0,4.1874,4.1927,4.1983,4.2045,4.2067,4.2107,4.2138,4.2154,4.2199,4.2217,4.2252,4.2294,4.2342,4.2373,4.242,4.2489,4.2499,4.2517,4.2521,4.2525,4.253,4.2564,4.2571,4.2493,4.2493,4.2493,0,0,4.1891,4.1935,4.1967,4.2045,4.2082,4.2131,4.2122,4.2177,4.2213,4.2225,4.2288,4.2315,4.2363,4.243,4.2461,4.2453,4.2554,4.253,4.2532,4.2535,4.2569,4.2576,4.2582,4.2496,4.2496,4.2495,0,0,4.1948,4.1988,4.2043,4.2079,4.2134,4.216,4.2172,4.2229,4.2247,4.2312,4.2321,4.2363,4.2446,4.2478,4.2506,4.2571,4.2573,4.2585,4.2608,4.2641,4.2647,4.2653,4.2672,4.2679,4.2591,4.2591,4.2591,0,4.1961,4.204,4.2069,4.2123,4.2155,4.217,4.2223,4.2255,4.2322,4.2342,4.2334,4.2436,4.247,4.2542,4.2557,4.258,4.2593,4.2578,4.2645,4.265,4.2656,4.2675,4.2682,4.2592,4.2591,4.2591,4.2591,0,4.2051,4.2106,4.2143,4.2208,4.2245,4.2298,4.2331,4.2364,4.2376,4.2401,4.2464,4.2505,4.2559,4.2577,4.2589,4.265,4.2643,4.264,4.2623,4.2664,4.2681,4.2689,4.2593,4.2592,4.2592,4.2592,0,0,4.2108,4.2188,4.2201,4.2229,4.2289,4.233,4.2382,4.2436,4.2462,4.2506,4.2547,4.2616,4.2612,4.2643,4.2658,4.2688,4.2731,4.268,4.2681,4.2685,4.2796,4.2797,4.2805,4.2734,4.2736,4.2737,4.2791,0,4.2168,4.2264,4.229,4.2369,4.2417,4.243,4.2474,4.2514,4.2538,4.2579,4.2605,4.2652,4.2645,4.2663,4.2693,4.272,4.2754,4.2717,4.2769,4.277,4.2754,4.2815,4.2817,4.2866,4.2799,4.28,4.2801,0,4.2252,4.23,4.2384,4.2435,4.2456,4.2496,4.2546,4.2587,4.263,4.2645,4.2679,4.2691,4.2741,4.2722,4.2789,4.2763,4.2786,4.2802,4.2804,4.2808,4.2787,4.2818,4.2883,4.2889,4.2813,4.2812,4.2811,0,4.228,4.2365,4.2426,4.245,4.2512,4.2539,4.2566,4.2608,4.2638,4.2681,4.2699,4.2746,4.2771,4.2806,4.2829,4.2814,4.2892,4.2876,4.2902,4.2902,4.2917,4.2915,4.2983,4.2936,4.2936,4.2935,4.2935,0,4.2343,4.2393,4.2439,4.2476,4.2531,4.2559,4.2611,4.2638,4.2675,4.2714,4.2728,4.2764,4.2793,4.2832,4.285,4.29,4.2912,4.2922,4.2926,4.292,4.2918,4.2934,4.293,4.2937,4.2937,4.2937,4.2936,0,4.2384,4.2417,4.2483,4.2537,4.2551,4.2589,4.2633,4.2667,4.2691,4.274,4.2753,4.279,4.2836,4.2863,4.2921,4.2932,4.2987,4.299,4.2973,4.2974,4.2997,4.2993,4.3076,4.3086,4.3034,4.3034,4.3035,0,4.2421,4.2459,4.2517,4.2546,4.2573,4.2619,4.2649,4.2677,4.2708,4.2759,4.2786,4.2833,4.2872,4.2944,4.2974,4.3017,4.302,4.3046,4.3026,4.3018,4.3016,4.3013,4.3015,4.3048,4.3049,4.3049,4.3049,0,4.2481,4.2495,4.254,4.259,4.2627,4.2667,4.2706,4.2728,4.2762,4.2794,4.2843,4.2873,4.2932,4.2977,4.3023,4.3046,4.3052,4.3055,4.3063,4.3056,4.3043,4.3047,4.2979,4.3053,4.3053,4.3052,4.3052,4.3052,4.2519,4.2552,4.2598,4.2646,4.2679,4.2716,4.275,4.2778,4.282,4.2871,4.2884,4.2934,4.2973,4.3034,4.3059,4.3095,4.3091,4.3103,4.3105,4.3107,4.3106,4.3039,4.3104,4.3104,4.3104,4.3104,4.3104,0,4.2577,4.2607,4.2652,4.2707,4.2744,4.2749,4.2792,4.2822,4.2866,4.2904,4.2942,4.2995,4.3038,4.3071,4.3115,4.3137,4.3141,4.3147,4.3145,4.3149,4.311,4.3097,4.3144,4.3144,4.3144,4.3144,4.3144,4.3144,4.2612,4.2668,4.2687,4.2758,4.2787,4.2838,4.2861,4.2893,4.2922,4.2982,4.3019,4.3041,4.3075,4.3121,4.3159,4.3168,4.3181,4.3187,4.3195,4.3157,4.3153,4.3148,4.3137,4.3191,4.3191,4.3232,4.3232,4.3232]}]]